DW8004 Weather Reports


time (UTC)temp
C
wind
direction
speed
KPH
gust
KPH
rain 1hr
cm
rain 24hr
cm
rain mn
cm
humidity
%
barometer
mb
20260506201533 13 331 0.0 0.0 0.25 1.63 1.63 97 1003.3
20260506200022 13 268 0.0 0.0 0.23 1.52 1.55 97 1003.4
20260506194623 13 34 0.0 0.0 0.18 1.42 1.42 97 1003.5
20260506193053 13 57 0.0 0.0 0.23 1.40 1.40 97 1003.7
20260506191549 13 36 0.0 0.0 0.33 1.37 1.37 97 1003.8
20260506190038 13 38 0.0 0.0 0.41 1.30 1.30 97 1004.0
20260506184555 13 136 0.0 0.0 0.58 1.24 1.24 97 1004.0
20260506183109 13 106 0.0 0.0 0.58 1.17 1.17 97 1004.0
20260506181554 13 261 0.0 0.0 0.58 1.02 1.02 96 1004.4
20260506180029 13 126 0.0 0.0 0.58 0.89 0.89 96 1004.4
20260506174604 13 119 0.0 0.0 0.46 0.66 0.69 96 1004.6
20260506173026 13 86 0.0 0.0 0.41 0.56 0.56 96 1004.8
20260506171608 13 161 0.0 0.0 0.33 0.43 0.43 95 1005.0
20260506170029 13 63 0.0 0.0 0.25 0.30 0.30 95 1005.3
20260506164510 13 40 0.0 0.0 0.18 0.20 0.20 95 1005.6
20260506163040 13 86 0.0 0.0 0.10 0.13 0.15 94 1005.5
20260506161546 13 94 0.0 0.0 0.10 0.10 0.10 93 1005.6
20260506160009 13 24 0.0 0.0 0.05 0.05 0.05 92 1005.5
20260506154502 14 41 0.0 0.0 0.03 0.03 0.03 91 1005.7
20260506153100 14 170 0.0 0.0 0.03 0.03 0.03 90 1005.8
20260506151610 15 46 0.0 0.0 0.00 0.00 0.00 88 1005.9
20260506150048 15 173 0.0 0.0 0.00 0.00 0.00 86 1006.2
20260506144603 15 248 0.0 0.0 0.00 0.00 0.00 83 1006.2
20260506143053 15 279 0.0 0.0 0.00 0.00 0.00 83 1006.4
20260506141526 15 32 0.0 0.0 0.00 0.00 0.00 83 1006.2
20260506140010 15 57 0.0 0.0 0.00 0.00 0.00 84 1006.0
20260506134558 15 49 0.0 0.0 0.00 0.00 0.00 85 1005.9
20260506133051 13 77 0.0 0.0 0.00 0.00 0.00 89 1005.8
20260506131546 13 82 0.0 0.0 0.00 0.00 0.00 91 1006.1
20260506130115 12 142 0.0 0.0 0.00 0.00 0.00 94 1006.2
20260506124546 11 117 0.0 0.0 0.00 0.00 0.00 95 1006.5
20260506123010 11 117 0.0 0.0 0.00 0.00 0.00 96 1006.6
20260506121604 11 66 0.0 0.0 0.00 0.00 0.00 97 1006.7
20260506120042 10 77 0.0 0.0 0.00 0.03 0.00 97 1006.7
20260506114508 9 128 0.0 0.0 0.00 0.03 0.00 97 1006.4
20260506113023 9 117 0.0 0.0 0.00 0.03 0.00 96 1006.6
20260506111540 8 123 0.0 0.0 0.00 0.03 0.00 96 1006.8
20260506110010 8 182 0.0 0.0 0.00 0.03 0.00 96 1006.8
20260506104614 8 182 0.0 0.0 0.00 0.03 0.00 96 1006.9
20260506103058 8 182 0.0 0.0 0.00 0.03 0.00 96 1006.9
20260506101523 8 182 0.0 0.0 0.00 0.03 0.00 96 1006.8
20260506100104 8 182 0.0 0.0 0.00 0.03 0.00 95 1006.8
20260506094526 8 182 0.0 0.0 0.00 0.03 0.00 95 1006.7